www.pogodaiklimat.ru

АРХИВ ПОГОДЫ в Краснодаре

Время (UTC), дата Ветер
(напр.,м/с)
 
Видим.   Явления Облачность Т
(С)
Тd
(С)
f
(%)
Тe
(С)
Тes
(С)
Комфортность P
(гПа)
Po
(гПа)
Тmin
(С)
Tmax
(С)
R
(мм)
S
(см)
18 24.02 В 2 10 км 3/0
[Ac trans]
+6.7 +0.8 66 +5 +5 тепло 1013.7 1010.0
21 24.02 СВ 2 10 км 3/0
[Ac trans]
+2.5 -1.3 76 -1 -1 по сезону 1013.9 1010.2
00 25.02 В 1 10 км 10/0
[Ci fib]
+1.4 -1.2 83 -0 -0 по сезону 1013.6 1009.8
03 25.02 В 2 10 км 4/0
[Ac trans]
+1.0 -1.3 85 -2 -2 по сезону 1014.2 1010.4 +1.0
06 25.02 В 2 10 км 9/4 1000 м
[Sc Ac trans]
+2.7 -1.4 74 -0 +1 по сезону 1015.5 1011.7 +0.8
09 25.02 СВ 3 10 км 8/0
[Ac trans Ci sp]
+6.3 0.0 64 +4 +7 по сезону 1015.5 1011.8
12 25.02 СВ 2 10 км 5/0
[Ac trans Ci fib]
+13.7 +3.1 49 +13 +17 тепло 1015.2 1011.6
15 25.02 СВ 2 10 км 8/0
[Ac trans Ci fib]
+10.9 +2.8 57 +10 +10 тепло 1016.4 1012.8 +13.8
18 25.02 В 2 10 км ясно +6.3 +0.8 68 +4 +4 тепло 1017.7 1013.9
21 25.02 В 1 10 км ясно +3.2 -0.4 77 +2 +2 по сезону 1018.5 1014.7
00 26.02 В 1 10 км 10/8 600 м
[Sc Ac trans]
+2.8 -0.5 79 +1 +1 по сезону 1019.3 1015.5
03 26.02 В 1 10 км 8/0 600 м
[Sc Ac trans]
+2.6 -0.4 81 +1 +1 по сезону 1021.0 1017.2 +2.1
06 26.02 СВ 1 10 км 10/6 1000 м
[Cb cap Ac und]
+4.5 +0.9 77 +3 +4 тепло 1022.9 1019.2
09 26.02 СВ 1 10 км {ливн. осадки} 10/5 1000 м
[Cb cap Ac und]
+9.4 +2.4 62 +9 +11 тепло 1024.4 1020.7
12 26.02 Ю 4 10 км {ливн. осадки} 10/3 1000 м
[Sc Ac cast Ci fib]
+16.2 +1.1 36 +16 +17 тепло 1024.6 1021.0
15 26.02 Ю 2 10 км 5/5 1000 м
[Sc]
+14.6 -2.0 32 +15 +15 тепло 1025.6 1022.0 +16.9
18 26.02 Ю 1 10 км ясно +10.6 0.0 48 +11 +11 тепло 1026.5 1022.8
21 26.02 В 1 10 км ясно +8.9 +2.9 66 +9 +9 тепло 1026.4 1022.7
00 27.02 В 1 10 км ясно +6.5 +2.6 76 +6 +6 тепло 1025.8 1022.1
03 27.02 В 1 4000 м дымка ясно +3.9 +1.1 82 +3 +3 тепло 1025.2 1021.4 +3.9
06 27.02 В 2 10 км 8/0
[Ci fib]
+6.4 +1.3 70 +4 +7 тепло 1024.5 1020.8 +3.2
09 27.02 В 3 10 км 8/0
[Cs]
+14.4 +1.2 41 +14 +19 тепло 1022.8 1019.1
12 27.02 В 3 10 км 10/0
[Ac cast Cs]
+18.0 +2.2 35 +18 +21 тепло 1020.0 1016.4
15 27.02 СВ 2 10 км 10/0
[Ac As Ci fib]
+14.2 +6.0 58 +14 +14 тепло 1018.7 1015.1 +18.5
18 27.02 СВ 3 10 км 8/0
[Ac trans]
+8.9 +3.8 70 +7 +7 тепло 1017.2 1013.5
21 27.02 СВ 3 10 км 4/0
[Ac trans]
+5.3 +2.0 79 +2 +2 по сезону 1015.9 1012.1
00 28.02 СВ 3 10 км 10/10 1000 м
[Sc]
+4.2 +1.6 83 +1 +1 по сезону 1013.9 1010.1
03 28.02 СВ 2 10 км 10/10 1000 м
[Sc]
+4.2 +1.6 83 +1 +1 по сезону 1012.8 1009.0 +4.2
06 28.02 СВ 3 10 км 10/10 1000 м
[Sc]
+4.5 +1.2 79 +1 +1 по сезону 1012.7 1009.0 +3.9
09 28.02 В 2 10 км 10/8 1000 м
[Sc Ac und]
+6.2 +1.4 71 +4 +5 по сезону 1012.5 1008.8
12 28.02 В 3 10 км 10/8 1000 м
[Sc Ac As]
+9.3 +2.7 63 +7 +7 по сезону 1011.4 1007.7
15 28.02 В 1 4000 м слабый ливневой дождь 10/10 1000 м
[Cb cap]
+8.2 +4.3 76 +8 +8 тепло 1011.8 1008.2 +9.4 0.3
18 28.02 В 2 10 км {ливн. осадки} 10/0
[Ac trans Ci fib]
+7.7 +3.3 74 +6 +6 тепло 1011.9 1008.2
21 28.02 СВ 1 10 км 10/0
[Ac trans Ci fib]
+6.3 +2.6 77 +5 +5 тепло 1011.9 1008.2
00 1.03 СВ 1 10 км 10/8 600 м
[Sc Ac und]
+5.6 +2.9 83 +4 +4 тепло 1012.3 1008.6
03 1.03 штиль 0 4000 м слабый дождь 10/0 600 м
[As op]
+5.1 +3.8 91 +4 +4 тепло 1013.3 1009.6 +5.0 2
06 1.03 штиль 0 4000 м слабый дождь н/о +5.2 +4.1 93 +4 +4 тепло 1014.9 1011.2 +5.0
09 1.03 штиль 0 10 км {ливн. осадки, дождь} 10/10 300 м
[Cb cap]
+6.2 +4.9 91 +5 +5 по сезону 1015.3 1011.6
12 1.03 СЗ 2 1000 м слабая морось {ливн. осадки, дождь} 10/10 300 м
[St]
+5.2 +4.0 92 +2 +2 по сезону 1015.7 1012.0
15 1.03 СЗ 1 4000 м слабый дождь {морось} 10/10 200 м
[Frnb Ns]
+4.7 +3.4 91 +3 +3 по сезону 1016.7 1012.9 +6.3 5
18 1.03 З 1 2000 м слабый дождь 10/10 200 м
[Frnb Ns]
+4.3 +3.3 93 +3 +3 по сезону 1017.7 1013.9
21 1.03 СЗ 1 4000 м дымка {дождь, морось} 10/10 300 м
[St]
+4.1 +3.1 93 +3 +3 по сезону 1017.6 1013.8
00 2.03 СЗ 1 4000 м дымка {дождь, морось} 10/10 300 м
[St]
+4.0 +2.9 93 +2 +2 по сезону 1017.5 1013.7
03 2.03 З 1 4000 м дымка 10/10 300 м
[St]
+3.6 +2.5 93 +2 +2 по сезону 1017.9 1014.1 +3.6 0.6
06 2.03 З 1 1000 м дымка {дождь} 10/10 200 м
[St]
+3.0 +2.0 93 +1 +1 по сезону 1018.9 1015.1 +3.0
09 2.03 ЮЗ 1 4000 м дымка {морось, туман} 10/10 300 м
[St]
+3.4 +2.3 92 +2 +2 по сезону 1019.0 1015.2
12 2.03 З 2 10 км в посл. час дождь {морось} 10/10 300 м
[Frnb Ns]
+4.3 +1.3 81 +2 +2 по сезону 1018.9 1015.1
15 2.03 З 1 10 км 10/10 300 м
[St]
+4.4 +1.7 83 +3 +3 по сезону 1019.2 1015.4 +4.4 0.7
18 2.03 З 1 10 км 10/10 300 м
[St]
+4.4 +2.1 85 +3 +3 по сезону 1020.1 1016.4
21 2.03 штиль 0 10 км 10/10 300 м
[St]
+4.5 +2.0 84 +4 +4 тепло 1019.7 1016.0
00 3.03 штиль 0 10 км 10/10 300 м
[St]
+3.9 +2.3 89 +3 +3 тепло 1019.3 1015.6
03 3.03 В 1 10 км 5/0
[Ac trans]
+1.4 +0.3 92 -1 -1 по сезону 1019.4 1015.6 +1.4
06 3.03 В 2 4000 м в посл. час туман 4/0
[Ci fib]
+4.1 +2.0 86 +1 +4 по сезону 1019.4 1015.6 0.0
09 3.03 В 2 10 км 8/0
[Ac trans Ci]
+9.6 +1.0 55 +8 +15 тепло 1018.1 1014.5
12 3.03 СВ 2 10 км 4/1 1000 м
[Cu med, cong Ac trans Ci fib]
+12.7 +2.3 49 +12 +16 тепло 1016.7 1013.1
15 3.03 СВ 2 10 км 3/0
[Ci fib]
+10.3 +2.5 58 +9 +9 тепло 1016.3 1012.7 +13.1

 

Местоположение метеостанции Краснодар (Краснодарский край, Россия): широта 45.03 долгота 39.15 высота над уровнем моря 34 м.

В архиве по умолчанию представлена погода в Краснодаре за последнюю неделю. Архивные данные за месяц целиком и за предыдущие месяцы, начиная с января 2011 года, Вы можете получить, выбрав интересующий диапазон дат из раскрывающегося списка и нажав кнопку "Ввод!".

Внимание! Время в таблицах - всемирное. Для получения местного времени необходимо прибавить поправку, которая в Краснодаре равна 3 ч.

Ветер - указаны скорость ветра в м/с - средняя за 10 мин, порывы в срок и между сроками (в фигурных скобках) и направление, откуда дует ветер: С - северный, СВ - северо-восточный, В - восточный, ЮВ - юго-восточный, Ю - южный, ЮЗ - юго-западный, З - западный, СЗ - северо-западный.
Видимость - горизонтальная дальность видимости в метрах или километрах. При видимости от 1 до 10 км при отсутствии осадков обычно наблюдается дымка, при ухудшении видимости до 1 км и менее - туман. В сухую погоду видимость может ухудшаться дымом, пылью или мглою.
Явления - указаны атмосферные явления, наблюдавшиеся в срок или в последний час перед сроком; фигурными скобками обозначены явления, наблюдавшиеся между сроками (за 1-3 часа до срока); квадратными скобками обозначены град или гололедные отложения с указанием их диаметра в мм.
Облачность - указаны через наклонную черту общая и нижняя облачность в баллах и высота нижней границы облаков в метрах; квадратными скобками обозначены формы облаков: Ci - перистые, Cs - перисто-слоистые, Cc - перисто-кучевые, Ac - высококучевые, As - высокослоистые, Sc - слоисто-кучевые, Ns - слоисто-дождевые, Cu - кучевые, Cb - кучево-дождевые. Подробнее классификацию облаков см. в Атласе облаков (PDF).
T - Температура воздуха - температура, измеренная на высоте 2 м над землей.
Td - Температура точки росы - температура, при понижении до которой содержащийся в воздухе водяной пар достигнет насыщения.
f - Относительная влажность воздуха - влажноcть воздуха, измеренная на высоте 2 м над землей.
Te - Эффективная температура - температура, которую ощущает одетый по сезону человек в тени. Характеристика душности погоды. При расчете учитывается влияние влажности воздуха и скорости ветра на теплоощущения человека.
Tes - Эффективная температура на солнце - температура, которую ощущает человек, с поправкой на солнечный нагрев. Характеристика знойности погоды. Зависит от высоты солнца над горизонтом, облачности и скорости ветра. Ночью, в пасмурную погоду, а также при ветре 12 м/с и более поправка равна нулю.
P - Атмосферное давление - приведенное к уровню моря атмосферное давление.
Po - Атмосферное давление - измеренное на уровне метеостанции атмосферное давление.
Tmin - Минимальная температура - минимум температуры воздуха на высоте 2 м над землей.
Tmax - Максимальная температура - максимум температуры воздуха на высоте 2 м над землей.
R - Количество осадков - Количество выпавших осадков, мм.
S - Снежный покров - Высота снежного покрова, см.